Location: Haliburton Scout Reserve
(45.0900°N, 78.3200°W)
Time: 01:26:38
(UTC-04:00)

ESTCUBE 1 - Pass Details

Date: 25 May 2022
Orbit: 644 x 659 km, 97.9° (Epoch: 27 June)

Event Time Altitude Azimuth Distance (km) Brightness Sun altitude
Exits shadow 23:33:35 43° 191° (S) 920 ? -20.2°
Maximum altitude 23:34:57 68° 258° (WSW) 706 ? -20.3°
Drops below altitude 10° 23:39:26 10° 342° (NNW) 2,065 ? -20.6°
Sets 23:41:41 0° 345° (NNW) 2,978 ? -20.8°
